AirNav   Everest Fuels
 
 749 users online  

57AZ La Cholla Airpark
Tucson, Arizona, USA

GOING TO TUCSON?


FAA INFORMATION EFFECTIVE 21 MAY 2020

Location

FAA Identifier: 57AZ
Lat/Long: 32-26-53.0218N 111-00-06.3713W
32-26.883697N 111-00.106188W
32.4480616,-111.0017698
(estimated)
Elevation: 2953 ft. / 900 m (estimated)
Variation: 12E (1985)
From city: 8 miles NW of TUCSON, AZ
Time zone: UTC -7 (year round; does not observe DST)
Zip code: 85737

Airport Operations

Airport use: Private use. Permission required prior to landing
Activation date: 04/1943
Control tower: no
ARTCC: ALBUQUERQUE CENTER
FSS: PRESCOTT FLIGHT SERVICE STATION
Attendance: ON CALL
PPR CALL (520) 297-8096.
Wind indicator: lighted
Segmented circle: no
Lights: ACTVT LIRL & REIL RY 01/19 - 122.9.

Airport Communications

WX AWOS-3 at AVQ (11 nm W): 118.375 (520-682-4104)
WX AWOS-3 at MZJ (17 nm W): 130.375 (520-682-3519)

Nearby radio navigation aids

VOR radial/distance  VOR name  Freq  Var
TUSr336/21.6TUCSON VORTAC116.0012E

 
NDB name  Hdg/Dist  Freq  Var  ID
MARANA067/11.024512EAVQ .- ...- --.-
RYAN012/20.233812ERYN .-. -.-- -.
ROBLES027/28.922012ERBJ .-. -... .---

Airport Services

Fuel available: 100LL
Airframe service: NONE
Powerplant service: NONE

Runway Information

Runway 1/19

Dimensions: 4670 x 44 ft. / 1423 x 13 m
Surface: asphalt, in good condition
Runway edge lights: low intensity
RUNWAY 1  RUNWAY 19
Latitude: 32-26.521815N32-27.245578N
Longitude: 111-00.261523W110-59.950853W
Elevation: 2887.4 ft.2953.0 ft.
Traffic pattern: leftleft
Runway heading: 008 magnetic, 020 true188 magnetic, 200 true
Displaced threshold: 250 ft.327 ft.
Obstructions: plinenone

Helipad H1

Dimensions: 44 x 44 ft. / 13 x 13 m
Surface: asphalt, in good condition
Traffic pattern: leftleft

Airport Ownership and Management from official FAA records

Ownership: Privately-owned
Owner: LA CHOLLA AIRPARK INC
6840 N ORACLE RD STE 130
TUCSON, AZ 85704-4282
Phone 520-297-8096
Manager: LARRY NEWMAN
6840 N ORACLE RD STE 130
TUCSON, AZ 85704-4282
Phone 520-297-8096
FAX: SAME AS PHONE - (520) 297-8096

Airport Operational Statistics

Aircraft based on the field: 95
Single engine airplanes: 90
Multi engine airplanes: 3
Helicopters: 2
    
Aircraft operations: avg 77/week *
100% local general aviation
* for 12-month period ending 31 December 1999

Additional Remarks

ROTORCRAFT USE STD LEFT-HAND TRF PATTERN TO THE ARPT. TAXI TO RWY CNTRLN AND MANEUVER WEST TO PARK, 125 FT WEST OF RWY CNTRLN. FOLLOW SIGNS TO PARKING.
MONITOR 122.9 INVOF ARPT.
FOR CD CTC TUCSON APCH AT 520-829-6121.

Instrument Procedures

There are no published instrument procedures at 57AZ.

Some nearby airports with instrument procedures:

KAVQ - Marana Regional Airport (11 nm W)
KDMA - Davis Monthan Air Force Base (18 nm S)
KTUS - Tucson International Airport (20 nm S)
KRYN - Ryan Field Airport (20 nm SW)
P08 - Coolidge Municipal Airport (36 nm NW)
 
Loc | Ops | Rwys | IFR | FBO | Links
Com | Nav | Svcs | Stats | Notes
Area around 57AZ (La Cholla Airpark)
 
Road maps at: MapQuest Bing Google
 
Aerial photo
WARNING: Photo may not be current or correct
Aerial photo of 57AZ (La Cholla Airpark)
Do you have a better or more recent aerial photo of La Cholla Airpark that you would like to share? If so, please send us your photo.

 
Sectional chart

 
Airport distance calculator
Flying to La Cholla Airpark? Find the distance to fly.

From to 57AZ

Sunrise and sunset
Times for 29-May-2020
 Local
(UTC-7)
 Zulu
(UTC)
Morning civil twilight04:5111:51
Sunrise05:1912:19
Sunset19:2402:24
Evening civil twilight19:5202:52

Current date and time
Zulu (UTC)  30-May-2020 03:16:56
Local (UTC-7)  29-May-2020 20:16:56
 
METAR
KAVQ 
11nm W 
300255Z AUTO 09007KT 10SM CLR 34/01 A2987 RMK AO2 T03430011
KDMA 
18nm S 
300258Z AUTO 02007KT 10SM BKN180 33/07 A2993 RMK AO2 SLP085 T03330073 58001 FZRANO $
KTUS 
19nm S 
300253Z 09003KT 10SM CLR 34/06 A2994 RMK AO2 SLP085 T03390056 58001
KRYN 
20nm SW 
300245Z 11006KT 10SM CLR 34/06 A2993 RMK LAST
TAF
KDMA 
18nm S 
292204Z 2922/3104 21018G27KT 9999 SCT120 BKN150 510009 QNH2988INS TEMPO 2922/2923 18020G35KT BECMG 2923/2924 VRB06KT VCSH 9999 FEW120 BKN140 QNH2987INS TEMPO 3000/3002 9000 -SHRA SCT100 BKN120 BECMG 3002/3003 VRB06KT 9999 NSW FEW100 SCT120 QNH2989INS BECMG 3006/3007 12007KT 9999 FEW080 SCT100 SCT330 QNH2991INS BECMG 3016/3017 VRB06KT 9999 SCT120 SCT300 510009 QNH2992INS BECMG 3019/3020 30009KT 9999 FEW120 BKN300 510009 QNH2982INS TX38/2922Z TN23/3012Z
KTUS 
19nm S 
292103Z 2921/3018 10012G19KT P6SM VCTS SCT140CB TEMPO 2921/2923 VRB15G30KT -TSRA SCT070 BKN110CB FM292300 16009KT P6SM SCT140 BKN200 FM300400 14008KT P6SM SCT140
NOTAMs
Click for the latest NOTAMs
NOTAMs are issued by the DoD/FAA and will open in a separate window not controlled by AirNav.

 

 
 

Would you like to see your business listed on this page?

 If your business provides an interesting product or service to pilots, flight crews, aircraft, or users of the La Cholla Airpark, you should consider listing it here.  To start the listing process, click on the button below
 
Add a business
 

Other Pages about La Cholla Airpark

Official airport web site
 
Update a link
 
Copyright © AirNav, LLC. All rights reserved. Privacy Policy  Contact